Location: Briis
(48.6240°N, 2.1211°E)
Time: 06:51:07
(UTC+00:00)

ATLAS 2AS CENTAUR R/B - Pass Details

Date: 25 September 2020
Orbit: 939 x 1273 km, 63.7° (Epoch: 19 October)

Event Time Altitude Azimuth Distance (km) Brightness Sun altitude
Rises 03:44:28 0° 318° (NW) 4,158 5.6 -19.9°
Reaches altitude 10° 03:47:19 10° 317° (NW) 3,152 4.9 -19.5°
Maximum altitude 03:54:52 77° 234° (SW) 1,168 2.7 -18.3°
Drops below altitude 10° 04:01:45 10° 149° (SSE) 2,893 5.1 -17.2°
Sets 04:04:17 0° 148° (SSE) 3,799 5.8 -16.8°
